Showing default

OPS 3151, 9803

Orbit data source: Space-Track

OPS 3151, 9803 is a payload satellite owned by SAMSO (US) in GEO that was launched on Sun, 06 Feb 1977 UTC via a TITAN IIIC launch vehicle from the Air Force Eastern Test Range (AFETR). Payload-class satellites include a variety of spacecraft equipped with specific instruments for various scientific and technological missions. These include communications satellites like Starlink; space stations such as the ISS; scientific satellites like the Hubble; Earth observation satellites from companies like Planet Labs, Umbra, and HawkEye 360; GPS; miniature CubeSats for education and research; and military/defense satellites.

Loading next visibility...
Identifier
9803, 1977-007A
Orbit
GEO
Country
Flag of USUS
Related business
Manufacturer
TRW
Mission
Non-operational spacecraft
Bus & Motor
DSP P2, MRE-4
Mass
1,040 kg wet, ~980 kg dry
Launch date (UTC)
1977-02-06 (50 years ago)
Launch vehicle
TITAN IIIC
Launch site
Air Force Eastern Test Range (AFETR)
Object type
Payload
Rocket body
Debris
Shape & HBR
CYL + 4 PAN, 1.1 m
Radar Cross Section
Medium (>0.1 m² and <1 m²)

Expand to show TLE details & history
Last TLE update: 5 hours ago

TLE from 5 hours ago
0 OPS 3151
1 09803U 77007A   26256.55669372 -.00000051  00000-0  00000-0 0  9992
2 09803   4.5049 283.6722 0077523  39.9038 124.8749  0.97528312 25515
Epoch: 2026-09-13T13:21Z
TLE epoch observation values (Epoch: 2026-09-13T13:21:38.337Z)
Latitude
1.10396°
Longitude
-103.72736°
Altitude
36,764.576 km
Speed
3.033 km/s
True Right ascension
05h 56m 55s
True Declination
1° 06' 10"
Sunlit
Object was in daylight at epoch
Visualization orbit readout
Latitude
Unknown
Longitude
Unknown
Altitude
Unknown
Speed
Unknown
Apparent Right ascension
Unknown
Apparent Declination
Unknown
Sunlit
N/A
Visualization observer readout
Local Sidereal Time
11:18:59
Azimuth
Unknown
Elevation
Unknown
Doppler factor
Unknown
Orbital elements
Apogee altitude
36,907.689 km
Perigee altitude
36,241.722 km
Semi-major axis
42,952.842 km
Eccentricity
0.00775
Inclination
4.5049°
RAAN
283.6722°
Arg. of periapsis
39.9038°
True anomaly
125.59967°
Mean anomaly
124.8749°
Eccentric anomaly
125.23769°
Mean motion
0.24381 °/min
Orbital period
1,476.55 mins
BSTAR
0
Loading maneuver chart data...
Computing Atmospheric mass density...
Loading historical data...
Loading historical data...
Loading historical data...
Loading historical data...
Loading historical data...
Loading historical data...
Loading historical data...
Other satellites on launch #7 in the year 1977 (1977-02-06 UTC)

Documentation

Showing up to 5 results
|